Precipitable_Water
1.13 1.18 1.15 1.11 1.11 1.01 0.92 0.90 0.94 1.05 1.19 1.26 1.33 1.39 1.43 1.41 1.44 1.42 1.42 1.40 1.33 1.35 1.34 1.24 1.15 1.14 1.15 1.18 1.11 1.09 1.14 1.11 0.93 0.95 1.05 1.12 1.16 1.16 1.17 1.18 1.18 1.17 1.22
1.14 1.16 1.12 1.13 1.05 0.97 0.91 0.91 0.98 1.12 1.23 1.26 1.34 1.35 1.38 1.40 1.41 1.39 1.37 1.37 1.34 1.30 1.28 1.27 1.19 1.22 1.21 1.20 1.19 1.13 1.11 1.08 0.96 0.87 0.95 0.97 1.04 1.05 1.07 1.08 1.12 1.15 1.14
1.16 1.13 1.14 1.03 1.01 0.93 0.89 0.93 1.01 1.14 1.19 1.23 1.30 1.31 1.32 1.34 1.34 1.38 1.37 1.31 1.28 1.31 1.32 1.22 1.15 1.12 1.11 1.11 1.12 1.15 1.15 1.08 1.01 0.90 0.90 0.99 1.00 1.07 1.08 1.07 1.05 1.07 1.11
1.16 1.13 1.08 1.01 1.00 0.90 0.90 0.96 1.03 1.12 1.18 1.21 1.28 1.30 1.30 1.32 1.33 1.34 1.33 1.31 1.28 1.23 1.20 1.24 1.26 1.25 1.20 1.18 1.15 1.11 1.08 1.00 0.94 0.91 0.90 0.87 0.88 0.94 0.98 0.95 0.94 1.06 1.08
1.15 1.14 1.06 1.05 1.04 0.95 0.95 0.98 1.05 1.11 1.15 1.20 1.24 1.27 1.29 1.28 1.27 1.24 1.23 1.22 1.21 1.22 1.28 1.30 1.29 1.25 1.20 1.14 1.09 1.05 0.99 0.92 0.91 0.86 0.79 0.80 0.85 0.93 0.96 1.07 1.08 1.11 1.17
1.17 1.13 1.08 1.05 1.05 0.99 0.96 0.99 1.06 1.10 1.12 1.13 1.12 1.14 1.18 1.17 1.22 1.26 1.29 1.26 1.26 1.25 1.22 1.27 1.28 1.21 1.11 1.15 1.15 1.12 1.06 0.92 0.88 0.89 0.87 0.89 0.99 1.07 1.06 1.09 1.05 1.02 0.96
1.14 1.11 1.05 1.03 0.98 0.95 0.95 0.94 0.96 1.01 1.02 0.99 1.00 1.01 0.99 1.02 1.08 1.13 1.20 1.23 1.21 1.23 1.23 1.18 1.15 1.08 1.10 1.05 1.00 0.98 0.98 0.97 0.97 0.98 0.99 1.00 1.01 0.99 1.03 1.05 1.05 1.01 0.98
1.06 1.04 1.00 0.99 0.90 0.88 0.90 0.89 0.90 0.93 0.94 0.94 0.93 0.93 0.92 0.94 0.99 1.03 1.05 1.03 1.00 0.99 0.98 0.97 0.97 0.98 1.00 1.03 1.00 1.01 1.00 1.02 1.04 1.04 1.05 1.03 1.04 1.05 1.05 1.03 1.01 0.98 0.97
0.96 0.97 0.95 0.93 0.87 0.86 0.85 0.85 0.87 0.86 0.87 0.88 0.89 0.90 0.91 0.93 0.98 1.00 1.01 0.98 0.94 0.93 0.94 0.96 0.98 1.01 1.05 1.08 1.04 1.00 0.98 0.98 1.01 1.01 1.03 1.01 0.98 1.01 1.00 0.97 0.91 0.86 0.74
0.89 0.94 0.93 0.90 0.87 0.86 0.88 0.89 0.88 0.88 0.87 0.87 0.88 0.90 0.93 0.94 0.98 1.01 1.00 0.98 0.94 0.93 0.94 0.96 1.00 1.02 1.04 1.04 1.01 0.97 0.93 0.92 0.93 0.94 0.95 0.94 0.93 0.90 0.83 0.78 0.71 0.60 0.55
0.85 0.92 0.92 0.87 0.83 0.83 0.84 0.86 0.85 0.83 0.82 0.82 0.82 0.83 0.85 0.89 0.92 0.95 0.95 0.94 0.92 0.90 0.90 0.90 0.94 0.99 0.99 0.99 1.00 0.95 0.91 0.92 0.88 0.88 0.84 0.83 0.75 0.67 0.59 0.53 0.49 0.46 0.41
0.82 0.83 0.87 0.85 0.82 0.81 0.84 0.83 0.86 0.86 0.83 0.81 0.81 0.81 0.86 0.89 0.92 0.95 0.95 0.93 0.92 0.90 0.88 0.89 0.88 0.90 0.90 0.90 0.89 0.87 0.86 0.84 0.78 0.69 0.62 0.54 0.48 0.45 0.45 0.44 0.42 0.38 0.36
0.74 0.74 0.78 0.80 0.79 0.80 0.80 0.79 0.79 0.83 0.83 0.80 0.82 0.81 0.82 0.86 0.85 0.87 0.88 0.88 0.87 0.84 0.84 0.83 0.81 0.80 0.78 0.75 0.71 0.67 0.63 0.57 0.51 0.45 0.41 0.41 0.41 0.41 0.40 0.40 0.39 0.38 0.35
0.67 0.69 0.70 0.70 0.70 0.72 0.73 0.73 0.69 0.73 0.75 0.72 0.74 0.75 0.74 0.75 0.77 0.76 0.77 0.76 0.74 0.72 0.70 0.66 0.63 0.59 0.56 0.53 0.51 0.49 0.46 0.44 0.42 0.40 0.39 0.38 0.37 0.35 0.33 0.32 0.30 0.29 0.28
0.63 0.63 0.63 0.64 0.64 0.64 0.66 0.65 0.64 0.66 0.68 0.65 0.65 0.69 0.67 0.65 0.68 0.68 0.66 0.64 0.63 0.60 0.58 0.53 0.48 0.46 0.45 0.43 0.41 0.40 0.40 0.39 0.37 0.37 0.35 0.33 0.31 0.29 0.27 0.27 0.25 0.24 0.22
0.56 0.57 0.58 0.60 0.60 0.59 0.59 0.59 0.62 0.63 0.63 0.63 0.63 0.62 0.63 0.63 0.62 0.59 0.57 0.55 0.53 0.51 0.46 0.42 0.41 0.39 0.38 0.37 0.37 0.36 0.35 0.34 0.33 0.32 0.30 0.28 0.26 0.24 0.23 0.23 0.22 0.20 0.18
0.50 0.52 0.52 0.53 0.53 0.54 0.55 0.54 0.52 0.56 0.58 0.59 0.59 0.59 0.60 0.59 0.57 0.55 0.53 0.53 0.52 0.50 0.46 0.44 0.41 0.39 0.38 0.36 0.35 0.34 0.32 0.30 0.29 0.26 0.24 0.22 0.21 0.21 0.19 0.18 0.17 0.15 0.14
0.45 0.46 0.46 0.47 0.47 0.47 0.48 0.47 0.47 0.46 0.45 0.47 0.50 0.50 0.51 0.51 0.51 0.52 0.52 0.51 0.48 0.47 0.44 0.42 0.39 0.38 0.35 0.32 0.28 0.25 0.23 0.22 0.21 0.21 0.18 0.18 0.17 0.17 0.16 0.15 0.15 0.13 0.12
0.36 0.37 0.38 0.38 0.39 0.39 0.39 0.39 0.39 0.38 0.38 0.38 0.40 0.41 0.41 0.41 0.41 0.40 0.40 0.37 0.34 0.33 0.31 0.29 0.28 0.27 0.25 0.23 0.23 0.22 0.20 0.18 0.18 0.17 0.17 0.15 0.15 0.15 0.14 0.13 0.13 0.12 0.12
0.24 0.25 0.25 0.26 0.26 0.26 0.25 0.25 0.25 0.25 0.24 0.23 0.24 0.25 0.26 0.25 0.23 0.23 0.24 0.23 0.23 0.22 0.22 0.21 0.21 0.20 0.19 0.19 0.18 0.17 0.17 0.15 0.15 0.15 0.13 0.13 0.12 0.13 0.12 0.12 0.12 0.11 0.11
0.21 0.20 0.21 0.20 0.20 0.20 0.21 0.20 0.20 0.19 0.18 0.16 0.16 0.18 0.19 0.18 0.18 0.18 0.18 0.18 0.18 0.17 0.18 0.17 0.16 0.16 0.16 0.15 0.16 0.15 0.13 0.13 0.12 0.12 0.12 0.11 0.11 0.12 0.11 0.11 0.11 0.10 0.10
0.18 0.17 0.17 0.16 0.16 0.16 0.17 0.17 0.17 0.16 0.16 0.16 0.16 0.15 0.16 0.16 0.15 0.15 0.15 0.14 0.14 0.15 0.15 0.15 0.14 0.13 0.13 0.13 0.13 0.13 0.12 0.11 0.10 0.10 0.09 0.09 0.10 0.10 0.09 0.09 0.09 0.09 0.09
0.16 0.16 0.15 0.15 0.17 0.17 0.15 0.14 0.15 0.16 0.15 0.15 0.15 0.14 0.14 0.13 0.13 0.13 0.13 0.13 0.13 0.13 0.12 0.13 0.12 0.12 0.12 0.12 0.12 0.11 0.10 0.09 0.09 0.09 0.08 0.08 0.08 0.08 0.08 0.08 0.08 0.08 0.08
0.14 0.14 0.14 0.14 0.13 0.13 0.14 0.14 0.14 0.13 0.13 0.13 0.13 0.13 0.12 0.12 0.12 0.12 0.11 0.11 0.11 0.11 0.10 0.11 0.10 0.09 0.09 0.09 0.10 0.10 0.09 0.08 0.08 0.08 0.07 0.08 0.07 0.08 0.07 0.08 0.08 0.08 0.08
0.12 0.12 0.12 0.12 0.12 0.12 0.13 0.12 0.12 0.12 0.12 0.12 0.12 0.12 0.12 0.12 0.11 0.11 0.10 0.10 0.09 0.10 0.10 0.10 0.09 0.09 0.09 0.08 0.08 0.08 0.07 0.07 0.07 0.07 0.07 0.07 0.07 0.08 0.08 0.08 0.08 0.07 0.08
0.10 0.10 0.10 0.11 0.11 0.11 0.11 0.11 0.11 0.11 0.11 0.10 0.11 0.11 0.10 0.10 0.11 0.10 0.09 0.09 0.08 0.08 0.09 0.09 0.09 0.08 0.08 0.09 0.08 0.08 0.07 0.07 0.07 0.07 0.07 0.07 0.08 0.08 0.07 0.07 0.07 0.07 0.07
Wind_Speed
22 21 20 18 17 16 15 15 16 16 16 16 17 19 25 25 29 33 32 34 33 37 34 33 31 30 28 28 27 27 26 24 21 22 22 21 21 23 24 27 29 30 31
21 20 18 18 16 15 14 13 13 12 11 12 13 18 23 26 29 33 32 32 34 35 32 31 30 29 29 28 28 28 29 27 25 26 27 26 26 26 28 29 29 30 31
20 20 19 18 17 15 13 12 11 10 9 7 8 12 17 19 24 28 33 31 33 31 29 28 27 29 30 30 29 28 28 28 27 26 25 25 26 26 27 28 29 29 30
20 21 20 19 16 15 14 12 11 10 9 8 9 12 14 17 19 22 25 31 30 28 26 26 26 27 28 28 27 28 27 27 27 26 26 27 28 29 28 28 28 28 29
19 21 21 19 17 15 14 12 11 11 10 10 11 13 14 14 16 20 23 27 29 28 24 23 23 24 24 25 25 26 27 26 27 27 27 27 27 27 27 27 27 27 26
19 20 21 19 17 15 14 12 11 11 11 12 12 13 13 14 16 19 20 21 23 24 24 24 23 23 24 24 25 24 25 26 26 25 26 27 27 25 25 25 28 28 31
21 19 20 18 17 14 14 13 12 10 9 10 11 12 12 11 13 16 18 19 21 21 23 23 22 22 22 23 23 24 24 24 26 28 29 29 29 30 31 33 34 34 35
19 19 20 19 18 17 16 14 14 13 13 12 11 12 12 11 13 15 17 17 17 17 18 19 20 19 20 21 22 21 22 23 25 27 27 29 31 33 33 32 32 33 33
19 20 20 20 19 18 18 17 16 16 15 14 14 14 13 12 13 14 16 17 17 16 16 17 19 21 22 23 24 24 24 24 24 25 26 27 27 29 31 33 35 35 35
19 19 20 20 19 18 18 18 17 16 16 16 15 15 15 16 16 17 19 20 19 20 20 20 20 22 23 25 26 26 25 26 26 26 26 26 26 28 29 30 31 32 33
18 19 20 19 18 18 19 19 19 20 20 19 17 17 16 17 17 18 19 20 21 20 20 20 20 21 22 23 23 24 24 24 24 26 26 26 28 29 29 29 29 31 32
12 15 19 17 18 18 18 18 19 18 19 21 21 19 18 18 18 18 18 19 19 19 19 18 18 18 18 18 20 21 23 25 26 26 27 28 28 29 30 31 31 32 33
7 12 12 14 14 15 15 19 20 19 17 19 19 19 18 18 16 16 17 17 16 18 19 19 19 19 19 20 20 22 23 25 25 26 27 28 29 31 32 33 35 36 37
3 5 9 10 11 11 12 13 16 15 15 17 17 16 18 19 19 20 20 20 20 20 20 20 20 20 21 22 23 23 24 25 26 27 29 30 32 33 34 36 37 38 39
4 6 7 8 11 10 9 11 12 11 14 16 16 17 16 17 19 18 20 22 22 22 22 22 22 23 23 24 24 25 26 27 29 30 31 33 34 35 36 37 39 40 40
6 7 7 9 10 8 10 11 9 11 12 13 15 17 18 18 20 20 21 21 22 23 23 24 24 25 25 26 27 28 29 30 31 32 34 35 36 37 38 39 40 41 42
7 8 8 9 10 11 13 13 14 13 13 15 16 16 19 20 20 21 22 22 24 26 26 26 27 28 28 28 29 29 31 32 33 34 35 37 38 38 39 40 40 42 43
8 8 9 9 10 11 12 12 14 14 15 16 16 17 18 20 21 22 24 25 26 26 26 27 28 28 29 29 30 32 33 34 35 36 37 38 39 40 40 41 42 43 45
11 11 12 12 12 12 13 14 14 15 16 17 18 18 19 20 21 22 23 24 24 25 26 26 28 29 30 31 32 33 34 34 36 37 38 39 40 41 42 43 44 45 46
14 14 14 14 15 15 16 17 17 17 18 19 20 21 21 22 22 23 23 24 25 26 27 28 29 30 31 32 33 35 35 36 38 39 40 41 42 43 44 45 45 46 46
19 19 19 19 19 20 20 20 21 21 21 21 22 23 23 24 24 25 25 26 27 28 29 30 31 32 33 35 36 37 38 39 40 41 42 43 43 44 44 45 45 45 45
24 24 24 24 24 24 24 24 25 25 25 25 26 26 27 27 28 28 29 30 31 32 32 33 34 35 36 37 38 39 40 41 42 42 43 43 44 44 44 43 43 43 42
27 27 27 28 27 27 28 28 28 28 28 29 29 30 30 31 31 31 32 33 33 34 35 35 36 37 38 39 39 40 41 42 42 42 42 42 42 42 41 41 40 40 39
29 30 30 29 30 30 30 30 31 31 31 31 32 32 33 33 33 34 35 35 36 36 37 37 38 38 39 40 40 40 40 41 41 40 40 40 39 39 38 37 37 36 35
30 31 31 31 31 31 32 32 32 33 33 33 34 34 34 35 35 35 36 36 36 37 37 37 38 38 39 38 37 37 38 38 38 37 37 36 35 34 34 33 32 31 30
31 31 31 31 31 31 32 32 32 32 33 33 33 34 34 34 34 35 35 35 35 35 35 35 35 35 35 34 34 35 35 35 34 34 32 31 31 30 29 28 28 27 27
Wind_Direction
209 213 218 226 232 242 250 256 260 261 261 254 247 228 213 213 214 210 209 209 207 206 209 211 217 220 224 230 237 242 245 248 250 249 252 256 257 259 263 265 268 271 270
212 214 219 225 232 240 246 254 257 255 254 248 238 228 217 221 214 207 207 203 203 203 211 217 222 223 229 235 241 244 243 246 249 252 254 260 261 264 269 271 271 272 273
212 217 223 225 232 238 243 248 249 240 236 236 214 199 203 201 197 203 203 203 201 209 215 218 224 230 236 238 240 241 243 245 250 253 256 258 263 267 271 272 273 274 274
219 220 223 224 230 236 236 238 236 230 223 212 195 185 177 182 188 191 198 204 208 210 221 228 231 232 233 237 237 239 242 245 249 253 255 261 266 269 271 273 273 274 276
224 222 222 223 227 229 228 230 227 221 216 206 195 186 187 185 190 197 203 207 211 216 220 227 231 231 235 235 238 240 243 248 251 255 259 263 266 268 270 272 272 276 275
226 221 220 222 223 224 223 221 218 214 211 207 205 207 202 204 208 205 206 210 213 216 223 229 234 236 237 238 242 244 246 249 252 256 261 265 268 268 272 273 277 277 278
220 219 217 220 222 221 220 218 215 208 198 195 195 197 200 208 212 213 215 217 220 225 227 232 233 235 239 239 241 243 248 254 257 260 264 266 270 271 274 276 277 279 279
225 221 219 221 223 221 220 219 218 217 214 211 206 207 210 216 216 214 211 212 215 220 225 229 232 235 239 239 241 246 252 258 262 264 266 270 273 275 275 277 278 280 281
227 220 221 222 221 222 223 224 222 220 219 218 219 220 221 224 222 219 218 219 221 225 230 233 237 242 246 246 249 251 256 261 265 268 271 273 276 279 281 278 281 282 282
219 217 217 219 221 222 224 223 222 221 221 223 225 229 231 233 234 233 231 230 231 236 241 245 250 250 250 251 253 255 257 260 265 268 274 276 279 282 284 283 283 284 284
223 215 216 220 222 225 227 229 229 229 228 229 232 235 237 239 238 236 235 234 235 238 241 247 252 256 255 254 255 257 261 256 266 271 276 273 281 283 286 287 287 286 286
200 211 213 217 223 227 230 231 230 232 232 234 234 237 239 240 238 236 235 233 235 238 238 245 254 257 254 257 258 260 262 264 270 274 277 278 281 282 285 287 288 289 290
195 199 201 212 218 227 231 238 235 230 231 235 237 237 240 227 238 235 233 234 225 236 247 253 256 258 260 262 263 266 268 271 273 275 278 280 282 284 286 287 288 288 290
198 206 210 208 213 222 227 231 217 229 237 231 235 228 235 244 238 233 235 239 243 250 253 255 257 260 263 265 267 271 273 274 276 278 280 282 283 286 288 288 289 290 290
251 237 229 228 230 224 224 231 235 242 235 234 239 242 241 235 237 240 245 249 251 253 254 258 260 263 266 268 271 273 276 277 279 281 282 284 286 287 289 290 290 291 291
283 268 264 249 243 239 241 233 245 245 244 242 247 244 243 242 248 252 255 254 254 256 258 261 263 266 268 271 273 275 278 280 282 283 284 286 287 288 289 290 291 292 292
299 288 280 272 269 265 255 254 255 257 256 255 254 258 255 253 259 261 258 259 259 261 264 265 267 269 270 273 275 277 280 281 283 285 286 287 288 289 290 291 292 293 293
304 303 296 289 284 277 275 275 269 267 265 266 266 265 265 264 265 267 265 265 266 267 267 268 270 271 272 275 278 279 281 282 284 286 287 288 289 290 291 292 293 294 294
309 301 295 293 288 285 283 280 278 276 273 273 273 273 272 272 272 273 272 271 271 272 272 272 274 276 277 278 279 280 281 283 285 286 288 289 290 291 292 292 293 294 295
306 303 298 293 290 287 285 283 282 280 278 278 277 278 277 276 276 276 276 275 275 276 276 277 277 278 278 280 281 281 283 285 287 288 289 290 290 291 292 293 294 294 295
297 295 294 292 291 289 287 285 283 281 280 279 279 279 279 278 278 278 278 279 279 279 280 279 279 280 281 282 284 285 285 287 288 289 290 290 291 292 293 293 294 294 295
293 291 290 289 288 286 285 283 282 281 280 279 279 280 280 279 279 279 279 279 280 280 281 281 282 282 283 284 285 286 287 288 289 289 290 291 291 292 293 293 294 295 295
292 290 288 287 286 285 284 283 283 282 281 280 280 280 280 279 280 280 280 281 281 282 282 283 283 283 285 286 287 287 287 288 290 291 290 291 291 293 293 293 294 296 296
291 289 288 286 285 284 284 283 282 282 281 281 281 281 280 280 280 281 281 281 282 283 283 284 284 285 285 286 287 288 289 289 290 291 291 291 291 293 293 294 295 296 297
290 289 287 286 285 284 283 282 282 281 281 281 281 281 281 281 281 282 282 283 283 283 284 284 285 286 287 287 287 288 289 290 290 291 292 292 292 293 293 294 296 297 298
291 289 288 286 285 284 283 282 282 282 281 281 281 280 281 281 281 281 282 282 284 284 284 285 285 286 287 287 287 289 290 291 291 292 292 292 293 293 294 295 297 298 299